Location: Hiram
(41.3130°N, 81.1440°W)
Time: 13:23:34
(UTC-04:00)

Daily predictions for brighter satellites

Satellite Brightness Start Highest point End
(mag) Time Altitude Azimuth Time Altitude Azimuth Time Altitude Azimuth
Cosmos 1867 4.3 21:30:59 10° S 21:35:40 30° ESE 21:40:23 10° NE
Cosmos 1023 Rocket 4.4 21:31:26 10° S 21:36:33 74° ESE 21:41:40 10° NNE
Cosmos 1340 Rocket 2.8 21:40:17 10° S 21:44:14 65° E 21:48:16 10° NNE
Cosmos 1980 4.4 21:40:43 10° NNW 21:46:14 53° WSW 21:51:44 10° S
Spot 1 4.1 21:43:58 10° S 21:48:02 77° WSW 21:52:14 10° NNW
Cosmos 1954 Rocket 4.3 21:43:01 10° SSW 21:48:12 72° WNW 21:53:24 10° NNE
ATLAS 5 CENTAUR R/B 1.9 21:43:54 10° SSW 21:48:22 53° ESE 21:53:14 10° NE
Cosmos 2173 Rocket 4.4 21:46:17 10° N 21:52:09 45° ENE 21:58:03 10° SSE
Cosmos 1850 Rocket 4.1 21:47:53 10° S 21:52:57 58° ESE 21:58:03 10° NNE
SPOT 5 3.9 21:49:09 10° SE 21:53:25 33° ENE 21:57:55 10° N
Lacrosse 5 3.4 21:49:05 10° NNW 21:53:26 28° NNE 21:57:46 10° E
Cosmos 2084 3.6 21:50:54 10° SSW 21:54:43 42° ESE 21:58:23 10° NE
Cosmos 1605 Rocket 4.4 21:49:14 10° NNW 21:55:26 68° W 22:01:41 10° S
Cosmos 614 Rocket 4.0 21:50:15 10° SSW 21:55:28 89° ESE 22:00:42 10° NNE
YAOGAN 6 2.7 21:51:58 10° S 21:55:35 78° W 21:59:16 10° NNW
Cosmos 2237 Rocket 3.1 21:51:14 10° NW 21:56:36 47° WSW 22:01:57 10° S
Cosmos 1726 4.0 21:54:22 10° NNE 21:56:42 16° ENE 21:58:49 11° ESE
Helios 1B rocket 3.0 21:53:03 10° N 21:57:10 63° WNW 22:01:14 10° SSW
Helios 1A 3.8 21:54:08 10° S 21:58:09 50° W 22:02:12 10° NNW
CZ-4B DEB 3.2 21:55:40 10° S 21:58:34 53° W 22:01:30 10° NNW
USA 234 3.4 21:53:14 10° ENE 21:59:34 50° SE 22:05:51 10° SSW
CZ-3B R/B 4.0 21:59:48 10° SSW 22:02:36 49° ESE 22:11:02 10° NE
H-2A R/B 3.1 22:00:47 12° SE 22:05:03 32° ENE 22:09:49 10° N
Atlas Centaur 2 3.0 22:03:32 10° SW 22:05:25 14° S 22:06:39 12° SSE
ERS-1 Rocket 3.0 22:02:00 10° SSE 22:07:01 83° ENE 22:12:05 10° NNW
Abrixas rocket 4.3 22:07:58 10° NW 22:10:41 24° N 22:13:25 10° ENE
Cosmos 1802 Rocket 4.2 22:04:50 10° N 22:10:51 54° E 22:16:08 13° SSE
Cosmos 2227 Rocket 3.8 22:06:15 10° SW 22:11:30 38° WNW 22:16:47 10° N
Cosmos 1818 3.6 22:06:20 10° NNW 22:11:48 80° ENE 22:16:16 15° SE
Lacrosse 4 Rocket 4.1 22:11:05 10° WSW 22:14:36 25° NW 22:18:13 10° N
Cosmos 1674 2.6 22:13:08 10° S 22:16:54 75° E 22:20:40 10° NNE
Cosmos 1908 3.2 22:13:00 10° N 22:16:54 76° E 22:20:03 15° SSE
Cosmos 1741 Rocket 4.1 22:11:53 10° SSW 22:17:12 88° WNW 22:22:33 10° NNE
SL-16 R/B 2.4 22:14:31 10° NNW 22:20:11 73° WSW 22:25:10 13° SSE
Meteor 2-17 Rocket 4.4 22:17:15 10° N 22:23:27 83° E 22:29:09 12° S
ARGOS 3.2 22:20:18 14° SSE 22:24:55 74° ENE 22:30:20 10° N
Cosmos 1408 Rocket 3.6 22:23:36 14° S 22:27:10 58° E 22:31:25 10° NNE
MetOp-A 4.2 22:22:19 12° SSE 22:27:18 82° WSW 22:32:41 10° NNW
KORONAS-FOTON 3.7 22:24:12 14° S 22:27:25 65° E 22:31:11 10° NNE
Cosmos 1356 Rocket 3.5 22:28:10 10° SSW 22:32:23 81° W 22:36:43 10° N
Cosmos 1076 Rocket 3.7 22:28:25 10° SSW 22:32:46 74° W 22:37:09 10° N
Tiangong 1 1.0 22:31:48 10° W 22:34:35 68° N 22:36:45 15° ENE
Terra 2.9 22:36:22 19° ESE 22:38:52 31° ENE 22:43:02 10° N
Cosmos 2058 4.5 22:38:51 18° ESE 22:39:42 19° E 22:42:42 10° NE
Cosmos 2016 Rocket 4.0 22:36:35 10° N 22:42:53 81° E 22:47:32 19° S
Cosmos 2221 3.8 22:40:21 10° NNW 22:44:25 38° W 22:48:28 10° SSW
Cosmos 1500 Rocket 4.4 22:45:14 25° SE 22:46:50 33° E 22:50:51 10° NNE
Cosmos 332 Rocket 4.0 22:47:11 10° NNW 22:52:04 62° ENE 22:54:33 28° SE
ERBS 4.0 22:50:02 10° NNW 22:52:57 26° NE 22:54:40 17° E
Cosmos 2227 4.2 22:48:30 10° SSW 22:54:14 87° ESE 22:59:59 10° NNE
Cosmos 2151 3.8 22:54:01 28° ESE 22:55:08 33° E 22:59:00 10° NNE
Cosmos 1814 Rocket 4.3 22:50:10 10° NNW 22:55:27 59° ENE 22:58:11 28° SE
CARTOSAT-1 4.1 22:55:32 29° SE 22:57:15 44° ENE 23:01:22 10° N
RESURS DK-1 2.4 22:53:31 10° NNW 22:57:41 70° ENE 22:59:21 35° SE
SL-08 RB Rocket 4.0 22:56:04 21° S 22:58:58 62° W 23:03:32 10° NNW
Cosmos 1486 Rocket 4.3 22:57:03 26° SSE 22:59:37 47° ESE 23:04:41 10° NNE
SPOT 1/Viking Rocket 3.6 22:56:35 23° S 22:59:48 79° WSW 23:04:59 10° NNW
Cosmos 1242 Rocket 4.1 22:56:40 10° NNW 23:00:00 31° W 23:02:30 15° SSW
Cosmos 1766 Rocket 4.2 22:58:37 11° SSW 23:02:39 52° W 23:06:54 10° N
Meteor 2-2 Rocket 4.3 22:57:51 10° N 23:03:39 89° E 23:07:11 25° S
USA 245 4.3 23:03:34 21° SSW 23:05:13 35° W 23:08:49 10° NNW
EO 1 Delta rocket 3.9 23:04:01 24° S 23:06:50 73° W 23:11:27 10° NNW
Cosmos 2233 Rocket 4.2 23:02:13 10° N 23:08:19 55° ENE 23:11:20 29° SE
Cosmos 841 Rocket 4.0 23:03:55 10° N 23:08:59 47° ENE 23:11:13 29° ESE
Cosmos 1328 Rocket 3.5 23:06:42 10° N 23:11:03 84° W 23:12:49 35° S
Cosmos 2228 Rocket 3.1 23:07:54 10° N 23:12:31 89° W 23:14:28 35° S
Cosmos 1763 Rocket 3.5 23:07:26 10° NNW 23:12:32 64° ENE 23:14:35 35° SE
SL-14 R/B 3.3 23:10:43 30° SSW 23:12:37 78° W 23:16:35 10° N
Cosmos 1515 Rocket 3.4 23:10:15 10° N 23:14:35 76° E 23:16:02 41° SSE
Cosmos 1328 4.0 23:15:50 29° SSW 23:17:47 69° W 23:21:50 10° N
H-2A R/B 2.2 23:17:20 40° SE 23:18:38 59° ENE 23:22:50 10° N
Cosmos 1743 Rocket 3.6 23:16:55 30° SSW 23:19:02 78° W 23:23:22 10° N
Cosmos 1151 Rocket 3.0 23:19:15 10° N 23:23:39 73° E 23:24:51 46° SSE
Cosmos 1300 3.2 23:20:02 10° NNW 23:23:46 52° W 23:25:01 35° SSW
Cosmos 2263 Rocket 2.3 23:21:44 34° SSE 23:23:51 53° ESE 23:29:16 10° NNE
Cosmos 1626 2.3 23:25:43 50° ESE 23:25:50 50° E 23:29:27 10° NNE
Cosmos 1447 Rocket 4.5 23:24:35 30° S 23:27:56 75° E 23:34:18 10° N
SL-19 R/B 4.1 23:23:02 10° NNE 23:28:22 70° ESE 23:30:50 34° S
Cosmos 1726 3.7 23:28:51 10° NNW 23:32:05 29° W 23:33:27 22° SW
ATLAS 5 CENTAUR R/B 4.3 23:29:33 10° W 23:33:24 24° NW 23:37:33 10° NNE
IGS 5A 3.5 23:33:58 49° S 23:35:01 73° W 23:39:11 10° NNW
Lacrosse 5 1.9 23:31:45 10° NW 23:36:47 68° SW 23:38:08 46° SSE
Meteor 2-12 Rocket 4.4 23:32:02 10° N 23:38:09 80° E 23:40:35 38° SSE
USA 234 4.1 23:36:16 10° NE 23:42:33 52° NNW 23:48:50 10° WSW
Cosmos 371 Rocket 3.7 23:38:14 10° NNW 23:42:55 52° WSW 23:44:22 38° SSW
H-2A R/B 3.4 23:41:24 19° SSW 23:44:23 33° W 23:49:14 10° NNW
Cosmos 1503 Rocket 4.0 23:43:58 47° SSE 23:45:12 62° ESE 23:50:19 10° NNE
Abrixas rocket 2.6 23:44:37 10° WNW 23:47:34 60° N 23:47:34 60° N
Cosmos 2285 Rocket 4.2 23:41:54 10° NNW 23:48:12 63° ENE 23:50:38 38° SE
PSLV R/B 4.0 23:49:40 45° NNW 23:49:40 45° NNW 23:51:48 10° NNW
Cosmos 1869 4.4 23:46:48 10° NNE 23:50:17 30° ENE 23:50:17 30° ENE
CZ-4C R/B 3.5 23:53:11 58° ESE 23:53:39 64° ENE 23:57:59 10° N
